Location: Napa Soda Springs
(38.3907°N, 122.2794°W)
Time: 21:29:39
(UTC+00:00)

SAR-Lupe-4 - Pass Details

Date: 29 October 2020
Orbit: 481 x 484 km, 98.2° (Epoch: 22 November)

Event Time Altitude Azimuth Distance (km) Brightness Sun altitude
Rises 13:30:25 0° 179° (S) 2,532 7.3 -12.8°
Reaches altitude 10° 13:32:31 10° 186° (S) 1,656 6.3 -12.4°
Maximum altitude 13:35:56 44° 260° (W) 674 3.8 -11.7°
Drops below altitude 10° 13:39:23 10° 334° (NNW) 1,668 5.9 -11.1°
Sets 13:41:31 0° 341° (NNW) 2,552 6.9 -10.7°
